This is the latest recevied weather packets stored in our database for station/object DB0HRC-6. If no packets are shown the sender has not sent any weather packets the latest 10 day(s).
| Time | Temp. | Humidity | Pressure | Rain* | Wind** | Luminosity | Snow |
|---|---|---|---|---|---|---|---|
| 1777242604 | 4.44° C | 69% | 1020.3 hPa | 0 mm | - | - | - |
| 1777241704 | 5° C | 67% | 1020.4 hPa | 0 mm | - | - | - |
| 1777240805 | 5° C | 67% | 1020.3 hPa | 0 mm | - | - | - |
| 1777239905 | 5° C | 67% | 1020.6 hPa | 0 mm | - | - | - |
| 1777239004 | 5° C | 69% | 1020.6 hPa | 0 mm | - | - | - |
| 1777238104 | 5° C | 68% | 1020.7 hPa | 0 mm | - | - | - |
| 1777237205 | 5° C | 70% | 1020.7 hPa | 0 mm | - | - | - |
| 1777236307 | 6.11° C | 66% | 1020.8 hPa | 0 mm | - | - | - |
| 1777235405 | 5.56° C | 66% | 1020.8 hPa | 0 mm | - | - | - |
| 1777234505 | 6.67° C | 66% | 1020.6 hPa | 0 mm | - | - | - |
| 1777233605 | 6.67° C | 65% | 1020.7 hPa | 0 mm | - | - | - |
| 1777232705 | 6.67° C | 67% | 1020.6 hPa | 0 mm | - | - | - |
| 1777231805 | 7.22° C | 67% | 1020.6 hPa | 0 mm | - | - | - |
| 1777230906 | 7.78° C | 62% | 1020.7 hPa | 0 mm | - | - | - |
| 1777230005 | 7.78° C | 60% | 1020.7 hPa | 0 mm | - | - | - |
| 1777229123 | 8.33° C | 63% | 1020.5 hPa | 0 mm | - | - | - |
| 1777228205 | 8.89° C | 60% | 1020.5 hPa | 0 mm | - | - | - |
| 1777227305 | 8.89° C | 60% | 1020.3 hPa | 0 mm | - | - | - |
| 1777226405 | 10° C | 57% | 1020.3 hPa | 0 mm | - | - | - |
| 1777225504 | 10° C | 57% | 1020.4 hPa | 0 mm | - | - | - |
| 1777224605 | 11.11° C | 55% | 1020.3 hPa | 0 mm | - | - | - |
| 1777223704 | 11.67° C | 51% | 1020.2 hPa | 0 mm | - | - | - |
| 1777222805 | 12.22° C | 50% | 1020 hPa | 0 mm | - | - | - |
| 1777221904 | 12.22° C | 44% | 1020.3 hPa | 0 mm | - | - | - |
| 1777221004 | 12.78° C | 45% | 1020.2 hPa | 0 mm | - | - | - |
* Rain latest hour (hover to see other rain measurements)
** Current wind speed in m/s (hover to see current wind gust speed)